Flag for Norway Weather past 2 weeks in Fevik, Norway

Now
53 °F

Cool.


Feels Like: 50 °F
Forecast: 49 / 59 °F
Wind: 10 mph from South

Location: Torungen Fyr

Current Time: May 26, 2015 at 2:56:54 PM

Latest Report: May 26, 2015 at 2:00 PM


Visibility: N/A

Pressure: 29.81 "Hg

Humidity: 69%

Dew point: 44 °F

Location of FevikLocation

Historic Weather in Fevik — Graph

°F

Fevik temperature yesterday

Maximum temperature yesterday: 56 °F (at 1:00 PM)
Minimum temperature yesterday: 44 °F (at 3:00 AM)
Average temperature yesterday: 50 °F

Past Weeks' High & Low Weather Summary

 TemperatureHumidityPressure
High62 °F (May 23, 4:00 PM)99% (May 24, 8:00 PM)30.10 "Hg (May 24, 8:00 PM)
Low42 °F (May 18, 6:00 AM)32% (May 23, 6:00 PM)29.32 "Hg (May 19, 6:00 AM)
Average49 °F76%29.83 "Hg
* Reported May 11 1:00 PM — May 26 1:00 PM, Fevik, Weather by CustomWeather, © 2015

Note: Actual official high and low records may vary slightly from our data, if they occured in-between our weather recording intervals... More about our weather records

Advertising

Fevik weather history for previous 24 hours

 ConditionsComfort  
Time TempWeatherWind HumidityBarometerVisibility
1:00 PM
Tue, May 26
53 °FCool.8 mph65%29.82 "HgN/A
12:00 PM53 °FCool.6 mph74%29.83 "HgN/A
11:00 AM54 °FCool.2 mph71%29.82 "HgN/A
10:00 AM54 °FCool.N/A56%29.82 "HgN/A
9:00 AM53 °FCool.N/A58%29.81 "HgN/A
8:00 AM50 °FCool.N/A64%29.80 "HgN/A
7:00 AM47 °FCool.N/A69%29.79 "HgN/A
6:00 AM46 °FCool.N/A71%29.79 "HgN/A
5:00 AM46 °FCool.N/A72%29.78 "HgN/A
4:00 AM47 °FCool.N/A72%29.78 "HgN/A
3:00 AM48 °FCool.N/A71%29.78 "HgN/A
2:00 AM49 °FCool.N/A69%29.77 "HgN/A
1:00 AM49 °FCool.N/A73%29.77 "HgN/A
12:00 AM48 °FCool.N/A77%29.77 "HgN/A
10:00 PM
Mon, May 25
51 °FCool.N/A71%29.77 "HgN/A
9:00 PM53 °FCool.N/A67%29.76 "HgN/A
8:00 PM55 °FCool.N/A62%29.75 "HgN/A
7:00 PM53 °FCool.N/A61%29.75 "HgN/A
6:00 PM51 °FCool.N/A78%29.75 "HgN/A
5:00 PM51 °FCool.N/A82%29.75 "HgN/A
4:00 PM52 °FCool.N/A73%29.75 "HgN/A
3:00 PM51 °FCool.N/A79%29.75 "HgN/A
2:00 PM51 °FCool.N/A78%29.76 "HgN/A
Weather by CustomWeather, © 2015

See weather overviewHow to use our weather pages